Regional Weather Roundup
Issued by NWS

Home | Current Version | Previous Version | Text Only | Print | Product List | Glossary On
Versions: 1 2 3 4 5 6 7 8 9 10 11 12 13 14 15 16 17 18 19 20 21 22 23 24 25 26 27 28 29 30 31 32 33 34 35 36 37 38 39 40 41 42 43 44 45 46 47 48 49 50
000
ASUS45 KBOI 251810
RWRID

IDAHO REGIONAL WEATHER ROUNDUP
NATIONAL WEATHER SERVICE BOISE ID
1200 PM MDT TUE APR 25 2017

NOTE: "FAIR" INDICATES FEW OR NO CLOUDS BELOW 12000 FEET
WITH NO SIGNIFICANT WEATHER AND/OR OBSTRUCTIONS TO VISIBILITY

IDZ012-014-251900-
SOUTHWEST IDAHO


CITY           SKY/WX    TMP DP  RH WIND       PRES   REMARKS
BOISE          MOSUNNY   50  36  58 NW10G18   29.94S
CALDWELL       MOSUNNY   53  36  52 W12       29.95S
MOUNTAIN HOME  MOSUNNY   52  34  49 NW18G26   29.93S
$$

IDZ016-017-251900-
SOUTHCENTRAL IDAHO


CITY           SKY/WX    TMP DP  RH WIND       PRES   REMARKS
BURLEY         SUNNY     47  33  58 W24G35    29.86R
JEROME         MOSUNNY   48  34  58 SW25G35   29.89R
TWIN FALLS     MOSUNNY   47  33  58 SW28G35   29.89S
$$

IDZ019>023-251900-
SOUTHEAST IDAHO


CITY           SKY/WX    TMP DP  RH WIND       PRES   REMARKS
IDAHO FALLS    LGT RAIN  45  37  73 NW14      29.80R
POCATELLO      PTSUNNY   44  40  85 SW13      29.86R
REXBURG        CLOUDY    46  36  68 VRB5      29.79R
$$

IDZ006-010-011-018-031-032-251900-
CENTRAL IDAHO MOUNTAINS


CITY           SKY/WX    TMP DP  RH WIND       PRES   REMARKS
MCCALL         PTSUNNY   42  32  67 VRB5      29.86S
HAILEY         MOSUNNY   52  25  35 NW12G17   29.83R
STANLEY          N/A     41  22  46 NW7       29.86F
SALMON         CLOUDY    48  28  46 SW3       29.85R
CHALLIS        CLOUDY    47  27  45 NE7G18    29.86R
$$

IDZ002-004-006-007-026-251900-
NORTHERN IDAHO


CITY           SKY/WX    TMP DP  RH WIND       PRES   REMARKS
LEWISTON       CLOUDY    51  42  71 NW3       29.91S
LOWELL           N/A     49  44  83 CALM      29.94S
COEUR D`ALENE  CLOUDY    46  41  82 W14       29.90R
MULLAN PASS    SNOW      32  32 100 VRB3      29.83S VSB 1/4
$$



USA.gov is the U.S. government's official web portal to all federal, state and local government web resources and services.